Dewpoint
69 68 68 68 68 67 67 66 66 66 66 66 65 65 64 65 63 62 65 64 65 64 63 64 65 65 64 65 64 64 65 65 66 66 65 65 66 66 66 65 65 64 65 65 65 64 64 63 62 62 63 61 61 60 59 59 59 59 59 59 58 58 59 58 57 56 57 58 58 58 59 61 62 63 63 63 64 68 71 71 70 70 70 71 71
68 68 68 68 67 66 66 65 66 65 65 65 65 66 65 65 64 64 63 63 65 64 64 64 65 64 64 64 65 65 65 65 66 65 65 65 65 66 65 65 64 64 63 64 64 64 62 62 62 62 63 61 60 59 58 59 58 58 58 58 57 58 59 58 58 57 56 57 57 57 58 60 60 62 63 63 64 65 68 70 71 70 71 70 71
67 68 68 67 67 67 67 66 66 66 65 65 65 66 65 63 64 64 64 64 65 64 64 64 64 64 64 64 64 65 65 65 66 65 65 65 64 64 65 65 64 62 62 62 62 63 62 63 62 61 63 60 60 59 59 59 58 57 58 58 58 58 59 59 58 57 56 56 57 56 57 58 60 61 63 64 64 65 65 66 68 69 70 71 71
67 67 68 68 67 67 67 67 66 65 65 65 64 63 62 62 64 63 63 63 63 65 65 65 64 64 64 64 65 65 65 66 66 66 66 65 64 64 64 63 63 63 62 62 63 63 62 61 61 61 62 60 59 59 59 59 58 58 57 58 58 58 58 59 59 58 57 57 57 56 57 57 59 61 63 64 64 64 64 64 66 67 68 69 70
66 67 67 67 67 67 66 66 65 64 63 62 62 61 61 59 63 60 60 61 61 61 62 64 64 64 64 64 64 64 65 65 66 66 66 65 65 64 62 61 62 62 63 62 64 63 62 61 60 61 61 60 59 59 59 58 59 58 58 58 58 58 59 58 59 59 58 57 57 57 57 57 59 60 62 63 63 63 64 64 64 65 66 67 69
65 66 66 65 66 66 65 64 63 63 62 61 60 60 60 59 59 60 62 59 61 61 60 61 62 62 63 64 64 64 64 66 65 65 66 66 63 62 62 62 63 63 62 62 62 62 62 61 60 61 61 59 59 59 59 59 58 58 58 58 58 58 58 58 59 58 58 58 57 57 57 57 58 60 62 63 63 63 63 64 65 66 68 68 68
65 66 65 65 65 65 65 64 63 62 63 62 62 61 60 59 60 62 62 61 60 59 59 59 62 63 63 62 62 63 63 64 64 66 66 64 63 63 63 62 62 63 63 63 62 62 61 60 60 60 60 60 59 59 59 59 59 58 59 59 59 59 59 59 59 59 58 57 57 57 57 57 58 59 61 63 63 64 64 64 65 66 68 69 69
65 65 65 65 65 64 64 63 63 63 63 64 63 62 62 63 62 63 63 61 61 60 59 58 59 61 61 61 61 62 61 61 63 65 66 64 63 62 63 63 63 63 63 62 61 61 60 60 60 61 60 60 59 59 59 59 59 59 59 59 59 59 59 60 59 58 58 57 57 56 57 57 58 59 61 62 63 63 64 64 64 64 65 67 68
65 65 65 65 65 64 64 63 63 63 64 63 63 62 63 63 64 64 63 63 64 61 60 60 60 60 61 61 61 62 63 63 66 66 65 63 63 63 64 63 63 62 61 61 61 61 60 60 61 60 62 63 60 59 58 58 59 59 59 59 59 59 59 59 58 58 57 57 56 57 57 57 58 58 59 61 61 61 63 64 64 64 65 65 67
65 65 64 65 65 64 64 64 64 63 63 62 62 62 62 63 63 63 63 63 63 63 61 62 62 60 60 62 62 63 62 64 67 65 64 64 65 65 65 64 62 61 61 61 61 61 60 61 63 64 62 61 60 58 56 55 55 58 60 59 59 59 59 59 58 58 57 56 56 57 56 56 56 57 58 59 61 62 63 63 63 64 65 65 66
62 62 63 64 63 63 63 63 63 63 63 62 63 63 63 63 63 63 64 63 62 62 63 60 58 60 61 60 59 61 62 63 64 62 62 63 64 64 63 63 62 61 61 60 60 60 60 61 61 64 63 63 63 61 59 57 56 55 55 56 56 59 58 58 58 57 58 57 57 57 57 57 57 57 58 58 60 61 62 63 63 63 64 63 63
62 63 63 63 63 63 62 62 63 63 63 63 63 63 64 63 63 63 63 63 63 63 62 62 62 61 61 60 60 60 61 64 60 60 61 61 62 63 63 63 62 61 61 60 60 60 60 61 62 62 62 63 62 61 61 60 58 57 56 56 56 56 55 58 58 57 57 57 57 57 57 56 57 57 57 58 58 60 61 63 63 63 63 63 63
63 63 63 63 63 63 63 63 63 63 63 63 63 64 63 63 63 63 63 63 63 63 62 62 62 62 61 61 61 61 60 61 58 58 59 60 60 62 62 62 62 62 61 61 61 60 60 61 62 62 62 63 64 62 62 62 60 59 57 57 57 56 57 56 56 59 59 58 57 57 57 57 57 57 58 58 59 59 60 61 62 64 64 63 63
63 63 63 64 63 63 64 64 63 63 63 63 64 63 64 63 63 63 63 63 62 62 62 61 61 62 62 61 61 61 60 59 57 57 57 58 59 61 62 62 62 62 62 61 61 61 60 61 61 61 60 61 61 61 61 61 61 60 60 60 60 59 56 55 55 55 56 59 59 58 58 59 58 58 59 58 58 58 59 59 61 62 63 63 64
64 64 64 64 64 64 64 64 64 64 64 64 63 63 63 63 63 63 63 62 61 61 61 61 62 63 62 60 59 59 62 57 56 56 56 56 57 60 61 63 62 62 62 62 61 62 61 62 60 60 60 60 61 61 60 59 59 60 60 59 58 58 58 57 57 57 58 58 59 59 58 58 58 58 59 59 59 59 59 59 60 62 64 65 65
65 65 64 64 64 64 64 64 63 64 63 63 63 63 63 63 63 63 63 62 61 61 61 62 61 60 60 60 60 61 62 57 56 56 55 55 58 60 61 61 61 62 62 62 62 62 62 61 61 60 60 60 59 58 58 58 57 59 58 57 57 57 57 56 55 57 58 59 59 59 59 59 56 58 59 58 59 59 60 61 61 61 61 62 63
65 65 65 65 64 64 64 63 63 63 63 63 63 63 63 63 64 64 63 62 61 60 60 60 60 60 59 60 61 60 61 59 54 54 53 55 57 60 61 61 62 62 62 62 62 63 63 62 61 61 60 60 56 55 55 55 57 56 56 56 57 57 57 57 57 56 56 55 54 54 55 55 55 55 54 55 58 58 59 59 58 59 59 60 62
65 66 65 65 65 64 64 63 63 63 63 62 62 62 63 64 64 65 63 62 61 60 60 60 60 61 60 60 61 59 59 58 53 52 53 55 59 61 61 61 60 61 61 61 62 62 62 64 64 60 59 59 54 54 54 55 55 55 56 57 57 57 57 58 59 59 56 56 56 56 56 56 56 56 56 56 55 56 58 57 58 60 59 60 61
64 65 65 65 65 65 64 63 63 63 62 62 62 62 63 63 64 65 63 62 61 60 60 58 59 60 60 58 64 59 57 57 50 51 53 54 57 60 61 61 60 60 60 60 60 60 59 59 61 59 58 56 52 51 51 52 53 54 56 56 57 57 58 59 59 58 59 59 60 60 59 57 59 58 59 56 57 58 60 58 58 59 59 60 62
65 65 66 66 66 65 64 64 63 62 62 62 62 62 63 63 64 64 63 62 61 60 60 59 58 58 57 57 62 60 60 61 57 52 52 53 56 60 60 59 59 58 58 59 59 57 56 56 58 57 54 53 51 50 49 49 52 54 56 56 57 57 59 58 58 58 60 60 60 60 58 58 57 57 58 58 59 60 61 59 59 59 59 61 63
65 65 66 66 65 65 64 64 63 62 62 62 63 63 63 64 64 62 62 61 61 60 59 58 58 59 59 60 61 61 63 62 59 52 51 53 55 57 58 57 57 56 56 56 55 55 55 56 57 57 55 51 49 48 48 48 50 54 55 57 58 58 54 55 59 58 60 60 60 59 58 57 57 57 58 58 59 59 60 60 59 59 59 60 62
65 65 66 66 65 64 64 64 64 64 64 64 64 65 65 65 64 64 64 61 61 61 61 60 59 60 60 61 61 61 63 64 61 55 52 51 51 53 55 56 57 55 55 55 55 55 56 56 57 56 52 49 48 47 47 47 49 55 57 52 50 51 55 60 60 59 59 59 59 58 57 56 56 57 57 58 59 60 59 60 60 59 60 60 63
65 67 67 66 65 64 64 63 63 65 64 64 64 64 65 64 64 64 64 64 62 61 62 62 60 60 60 61 60 60 61 63 61 60 52 49 48 49 51 53 54 56 55 55 55 56 56 57 57 57 51 47 46 47 48 47 48 55 50 49 51 53 56 59 58 58 58 58 58 57 56 56 56 56 57 57 58 58 59 59 61 60 60 61 63
69 68 67 67 66 65 63 64 66 65 64 64 63 62 63 64 64 64 63 62 60 59 61 62 61 59 59 59 59 59 62 63 61 61 57 50 47 47 47 48 49 53 56 56 55 55 55 56 57 50 46 45 46 47 48 48 55 50 49 51 53 55 58 57 56 57 57 57 57 56 56 57 57 56 57 57 58 58 58 58 61 62 61 62 63
67 67 67 67 67 66 67 65 63 62 64 63 62 62 62 63 62 62 62 61 60 59 59 60 60 60 59 58 58 60 63 62 60 61 59 56 50 47 50 52 51 50 52 54 56 57 55 49 47 47 47 47 47 49 51 52 52 52 52 53 55 57 56 56 55 55 56 55 56 56 56 57 57 57 57 57 59 58 58 58 61 64 62 62 63
65 66 67 67 68 67 66 63 62 62 62 62 62 63 63 63 61 60 60 61 61 60 59 58 59 58 58 58 60 60 61 62 61 61 61 59 56 54 53 52 52 53 53 55 53 51 50 49 49 50 51 54 55 56 59 58 56 54 55 57 56 56 56 55 55 54 55 55 56 56 56 57 57 57 57 57 58 58 58 58 59 63 64 62 62
67 67 67 68 67 66 64 64 63 62 61 61 62 63 63 62 60 59 59 59 60 60 59 59 59 59 58 59 59 60 60 61 58 55 54 54 54 54 53 54 56 55 56 55 54 52 52 53 52 51 50 52 56 57 58 59 59 57 57 57 56 56 56 55 55 55 55 55 55 56 57 57 58 56 56 57 58 58 58 58 58 59 64 64 63
67 67 67 67 66 65 65 67 64 62 63 62 61 61 61 61 61 60 59 59 58 58 58 59 60 59 59 60 59 59 58 55 52 52 51 51 51 50 52 54 54 54 54 53 51 51 52 51 52 57 61 58 57 57 58 57 56 55 55 55 55 56 56 55 55 55 55 55 55 56 56 57 56 56 56 56 58 58 58 58 57 57 61 64 63
65 65 66 66 66 66 64 63 63 62 62 60 53 51 52 55 58 57 50 50 55 59 60 59 60 60 61 58 57 57 57 56 53 47 52 46 48 47 48 49 49 49 51 46 49 50 50 52 56 52 53 53 53 52 52 52 53 52 53 52 53 53 53 53 52 52 54 55 54 55 55 55 55 56 56 56 57 58 58 57 56 57 57 59 63
62 60 61 63 63 65 63 61 61 62 62 58 51 50 49 43 45 57 53 49 45 43 47 57 57 57 51 52 56 58 56 53 45 42 41 40 40 41 42 41 40 43 43 43 45 46 49 54 50 50 51 51 50 51 50 50 51 50 50 51 51 50 52 52 51 52 53 54 54 54 54 55 54 55 55 55 56 57 58 56 56 56 55 56 56
62 61 59 58 63 65 62 61 61 61 62 60 54 52 51 49 42 42 47 47 43 40 40 42 45 51 54 51 49 47 47 43 41 41 40 39 39 39 38 38 38 39 40 45 49 51 54 50 49 49 49 48 49 49 49 48 49 49 47 48 48 47 49 49 50 51 52 53 52 53 53 54 54 54 54 55 55 56 57 58 57 56 55 55 55
61 60 59 60 66 65 64 63 63 62 62 62 58 56 54 51 50 43 41 43 42 40 39 40 42 44 46 49 48 49 45 41 40 40 40 40 40 39 38 38 38 38 39 42 50 51 50 49 48 48 48 48 48 50 48 46 47 46 46 46 44 45 45 47 48 50 51 52 51 51 52 53 53 53 54 54 54 55 56 56 57 56 55 55 55
57 56 58 59 62 64 62 63 62 61 61 61 60 59 57 56 53 49 48 41 40 40 40 40 40 41 43 44 45 45 44 43 40 39 40 40 39 39 39 39 38 39 40 47 51 49 49 48 47 47 47 47 46 46 46 45 46 46 45 46 44 42 43 45 45 48 50 51 51 50 51 51 52 53 53 53 53 54 55 55 56 57 56 55 55
60 61 60 59 59 60 59 61 62 60 60 60 61 60 59 58 57 53 50 49 49 46 43 40 40 41 39 39 40 40 38 39 40 40 40 40 40 40 39 44 43 43 47 51 48 48 48 47 48 47 46 47 46 47 45 45 46 46 46 46 45 42 43 43 43 45 47 48 48 49 49 50 51 51 52 53 53 53 54 55 56 55 55 56 55
61 62 59 62 61 61 61 61 61 61 60 61 60 60 59 59 58 58 54 52 52 51 50 50 47 42 46 46 43 39 38 38 38 38 38 39 40 41 44 52 53 52 50 50 50 49 48 48 47 47 46 46 46 46 44 44 44 44 44 45 45 40 42 42 42 43 44 44 46 47 48 49 49 50 51 52 52 52 52 53 55 55 54 55 56
60 59 60 61 61 62 61 61 60 60 60 60 60 59 59 58 57 57 56 57 56 53 52 51 51 50 44 41 41 41 41 40 39 40 40 40 40 45 48 48 48 49 49 49 49 49 49 48 48 47 47 46 46 45 44 44 43 42 42 43 45 41 40 40 41 42 43 42 43 46 45 46 47 48 49 51 52 51 52 52 53 54 54 54 55
60 60 61 60 59 60 61 60 58 58 60 59 59 59 59 59 59 58 58 57 58 56 54 53 52 52 50 53 51 45 41 41 41 40 40 41 41 48 47 47 46 47 47 46 48 47 46 46 46 46 46 45 44 43 43 43 42 41 43 40 42 41 39 39 39 42 41 41 41 42 42 43 45 46 48 48 50 51 52 52 52 53 53 53 54
61 60 59 59 58 59 60 59 58 60 59 58 58 59 59 59 58 58 57 56 58 56 54 53 52 51 52 52 53 52 52 47 44 46 46 47 47 48 47 48 47 46 45 45 46 46 45 44 44 43 43 43 43 41 40 40 42 40 40 37 39 41 42 40 41 39 41 40 40 40 41 41 43 44 46 47 48 50 51 51 51 51 51 52 52
59 58 58 58 58 58 58 58 58 57 57 58 58 58 57 56 56 55 55 56 55 55 55 53 52 51 50 51 50 50 51 51 51 51 50 48 48 47 47 47 47 46 46 46 46 45 43 42 44 43 43 42 42 41 38 38 39 38 38 35 34 36 38 37 37 37 39 39 40 40 39 39 41 42 43 44 46 49 49 50 50 50 50 50 50
58 57 57 58 58 58 59 59 58 57 58 57 56 56 55 55 55 55 54 54 52 52 52 51 50 50 50 48 47 46 49 50 50 48 48 47 46 46 46 46 46 47 46 45 46 44 42 41 42 42 41 40 41 41 38 36 36 37 36 36 33 34 34 36 37 37 37 39 40 40 39 39 40 40 41 43 43 45 47 49 49 50 50 50 50
59 59 59 56 57 58 59 58 57 56 56 57 56 55 55 55 55 55 54 53 53 53 52 50 49 47 47 45 43 43 46 49 47 49 48 47 46 45 45 44 43 41 43 44 43 44 43 41 42 41 40 39 39 38 34 33 33 32 34 36 32 33 32 35 36 37 37 38 39 40 39 39 40 38 39 41 42 43 44 46 46 48 48 49 50
58 58 57 57 56 58 58 57 56 57 56 55 54 54 56 55 53 54 54 54 54 52 50 49 47 48 45 42 41 40 45 47 47 47 45 46 45 45 45 43 42 42 41 40 41 42 44 42 42 41 40 39 38 37 33 30 30 28 30 33 31 31 31 33 36 37 37 37 38 40 40 41 42 39 40 41 38 40 41 42 43 43 44 46 48
59 57 57 57 56 56 57 56 56 55 54 54 54 56 56 54 53 54 53 53 54 51 49 49 48 47 46 45 45 43 46 47 48 46 45 45 45 45 42 40 40 40 40 40 40 41 43 42 40 40 40 39 36 33 29 28 28 27 28 31 32 30 29 32 34 36 36 37 37 39 39 40 42 37 39 41 37 39 39 40 41 41 41 42 44
57 57 57 57 56 56 55 54 54 54 54 55 55 55 55 54 54 54 52 50 51 51 49 49 49 48 47 46 46 47 45 45 45 43 44 45 44 44 41 40 42 42 41 42 40 42 42 41 41 39 38 38 35 33 30 27 26 25 26 27 32 31 29 31 32 34 36 35 36 37 38 40 41 36 38 41 38 39 39 40 40 39 38 39 41
56 56 55 55 55 54 54 54 54 53 54 54 52 52 52 50 50 49 49 48 50 49 50 50 49 50 48 45 46 45 44 44 46 46 45 43 41 41 42 41 42 43 41 42 42 40 41 40 39 37 36 35 34 32 30 29 28 25 25 26 26 27 26 28 30 34 36 35 34 36 38 39 39 34 36 38 40 39 39 39 40 42 38 38 38
55 55 55 54 54 55 54 53 54 51 51 50 48 48 47 48 48 49 48 49 50 49 49 49 49 49 48 46 46 46 44 43 43 44 45 42 42 43 43 42 42 41 41 41 41 40 40 37 38 38 34 32 30 29 29 30 30 29 28 28 28 28 28 29 31 36 34 32 33 34 37 39 40 35 39 38 39 39 39 39 40 41 39 38 38
54 53 51 54 53 53 53 53 50 49 49 50 49 48 47 47 48 50 52 50 48 50 45 46 47 47 47 45 43 43 45 44 43 43 42 42 43 43 42 43 42 40 38 38 40 39 39 38 38 39 36 33 31 29 27 26 27 28 31 29 30 30 30 32 33 34 31 32 34 34 35 38 41 36 38 38 38 38 39 38 40 41 39 39 37
53 53 52 52 50 49 50 50 50 52 49 49 48 49 48 48 47 48 48 48 47 46 44 44 43 44 44 43 43 42 44 43 44 45 43 42 40 41 42 41 40 38 39 37 36 37 39 40 39 39 36 33 31 29 28 27 27 27 27 27 30 30 30 32 31 30 30 31 32 34 36 37 38 38 37 38 37 37 37 36 39 39 39 39 38
48 48 49 48 50 50 50 49 51 48 47 47 48 48 47 46 46 46 47 45 46 44 42 42 43 43 43 43 43 42 44 46 42 42 42 42 41 41 39 40 41 38 37 36 36 37 37 37 41 38 34 30 30 30 30 31 28 28 28 28 30 31 31 32 31 30 32 32 31 33 35 38 36 38 38 38 38 35 35 36 38 38 37 39 38
50 51 51 48 48 48 48 48 48 47 47 47 46 45 46 47 46 46 44 44 42 43 41 42 44 43 43 43 45 44 43 44 42 41 40 41 40 39 38 37 38 38 36 36 36 36 35 36 36 36 31 30 30 30 31 31 29 28 28 29 31 30 30 31 31 32 31 29 31 33 36 38 34 32 33 34 36 33 33 35 38 36 35 36 37
50 47 47 46 48 49 49 48 47 47 47 47 46 45 46 44 44 43 44 42 42 42 45 42 40 40 41 41 44 41 41 41 42 41 41 40 40 39 39 40 40 39 36 35 36 36 35 37 37 35 32 34 33 32 30 28 29 27 30 31 31 30 30 30 28 29 32 33 33 36 37 36 34 33 33 32 36 32 36 36 37 35 34 35 37